Location: Newark
(13.8117°N, 3.6025°W)
Time: 06:32:28
(UTC+00:00)

Courier 1B - All Passes

Search period start: 25 August 2019 00:00
Search period end: 04 September 2019 00:00
Orbit: 962 x 1209 km, 28.3° (Epoch: 24 August)

Date Brightness Start Highest point End Pass type
(mag) Time Alt. Az. Time Alt. Az. Time Alt. Az.
25 Aug - 01:01:11 10° W 01:06:28 25° SSW 01:11:55 10° SSE night (unlit)
25 Aug - 12:38:11 10° SSW 12:44:53 32° SSE 12:51:16 10° E daylight
25 Aug - 14:31:35 10° WSW 14:39:07 84° NNW 14:46:11 10° ENE daylight
25 Aug - 16:27:18 10° W 16:33:42 34° NNW 16:39:47 10° NE daylight
25 Aug - 18:23:47 10° NW 18:28:56 22° N 18:33:55 10° NE daylight
25 Aug - 20:18:36 10° NW 20:24:13 29° NNE 20:29:43 10° ENE visible
25 Aug - 22:12:18 10° WNW 22:18:45 69° NNE 22:25:16 10° ESE visible
26 Aug - 00:06:52 10° W 00:12:42 35° SSW 00:18:43 10° SE night (unlit)
26 Aug - 11:44:58 10° SSW 11:50:55 24° SSE 11:56:41 10° E daylight
26 Aug - 13:37:33 10° WSW 13:45:13 75° SSE 13:52:24 10° ENE daylight
26 Aug - 15:32:46 10° W 15:39:41 42° NNW 15:46:12 10° NE daylight
26 Aug - 17:29:20 10° WNW 17:34:48 24° N 17:40:02 10° NE daylight
26 Aug - 19:24:46 10° NW 19:30:11 25° N 19:35:26 10° ENE visible
26 Aug - 21:18:37 10° NW 21:24:57 52° NNE 21:31:15 10° E visible
26 Aug - 23:12:47 10° WNW 23:18:59 49° SSW 23:25:19 10° SE night (unlit)
27 Aug - 01:10:21 10° SW 01:13:01 13° SSW 01:15:45 10° S night (unlit)
27 Aug - 10:52:09 10° S 10:56:55 17° SSE 11:01:35 10° ESE daylight
27 Aug - 12:43:43 10° SW 12:51:17 56° SSE 12:58:30 10° ENE daylight
27 Aug - 14:38:20 10° W 14:45:41 54° NNW 14:52:36 10° NE daylight
27 Aug - 16:34:45 10° WNW 16:40:39 27° N 16:46:17 10° NE daylight
27 Aug - 18:30:44 10° NW 18:36:04 24° N 18:41:13 10° ENE daylight
27 Aug - 20:24:55 10° NW 20:31:06 41° NNE 20:37:08 10° E visible
27 Aug - 22:18:51 10° WNW 22:25:17 69° SSW 22:31:46 10° SE visible
28 Aug - 00:14:54 10° WSW 00:19:12 18° SSW 00:23:35 10° S night (unlit)
28 Aug - 10:00:20 10° SSE 10:02:51 12° SSE 10:05:22 10° SE daylight
28 Aug - 11:50:04 10° SW 11:57:20 42° SSE 12:04:22 10° E daylight
28 Aug - 13:44:02 10° WSW 13:51:42 69° NNW 13:58:56 10° ENE daylight
28 Aug - 15:40:07 10° WNW 15:46:31 31° NNW 15:52:36 10° NE daylight
28 Aug - 17:36:31 10° NW 17:41:56 23° N 17:47:06 10° NE daylight
28 Aug - 19:31:09 10° NW 19:37:10 34° NNE 19:42:58 10° E visible
28 Aug - 21:25:01 10° WNW 21:31:34 87° NNE 21:38:03 10° ESE visible
28 Aug - 23:20:11 10° W 23:25:27 26° SSW 23:30:47 10° SSE night (unlit)
29 Aug - 10:56:38 10° SSW 11:03:23 31° SSE 11:09:59 10° E daylight
29 Aug - 12:49:52 10° WSW 12:57:43 88° NNW 13:05:11 10° ENE daylight
29 Aug - 14:45:30 10° W 14:52:24 37° NNW 14:58:56 10° NE daylight
29 Aug - 16:42:07 10° NW 16:47:44 24° N 16:53:07 10° NE daylight
29 Aug - 18:37:17 10° NW 18:43:08 29° NNE 18:48:46 10° ENE visible
29 Aug - 20:31:12 10° WNW 20:37:49 66° NNE 20:44:14 10° ESE visible
29 Aug - 22:25:51 10° W 22:31:45 37° SSW 22:37:39 10° SE visible
30 Aug - 10:03:32 10° SSW 10:09:24 23° SSE 10:15:12 10° E daylight
30 Aug - 11:55:53 10° SW 12:03:44 72° SSE 12:11:17 10° ENE daylight
30 Aug - 13:50:58 10° W 13:58:19 46° NNW 14:05:17 10° NE daylight
30 Aug - 15:47:33 10° WNW 15:53:32 26° N 15:59:13 10° NE daylight
30 Aug - 17:43:17 10° NW 17:49:02 26° N 17:54:32 10° ENE daylight
30 Aug - 19:37:25 10° NW 19:43:59 51° NNE 19:50:16 10° E visible
30 Aug - 21:31:42 10° WNW 21:38:03 52° SSW 21:44:19 10° SE visible
30 Aug - 23:29:09 10° WSW 23:31:58 13° SSW 23:34:49 10° S night (unlit)
31 Aug - 09:10:55 10° S 09:15:22 16° SSE 09:19:51 10° ESE daylight
31 Aug - 11:02:07 10° SW 11:09:45 54° SSE 11:17:14 10° ENE daylight
31 Aug - 12:56:33 10° W 13:04:14 58° NNW 13:11:35 10° NE daylight
31 Aug - 14:52:55 10° WNW 14:59:19 29° N 15:05:25 10° NE daylight
31 Aug - 16:49:07 10° NW 16:54:52 25° N 17:00:22 10° ENE daylight
31 Aug - 18:43:35 10° NW 18:50:03 40° NNE 18:56:13 10° E visible
31 Aug - 20:37:41 10° WNW 20:44:21 73° SSW 20:50:49 10° SE visible
31 Aug - 22:33:44 10° WSW 22:38:12 19° SSW 22:42:40 10° SSE visible
01 Sep - 08:19:53 10° SSE 08:21:19 11° SSE 08:22:46 10° SE daylight
01 Sep - 10:08:34 10° SW 10:15:47 40° SSE 10:22:57 10° E daylight
01 Sep - 12:02:18 10° WSW 12:10:10 73° NNW 12:17:48 10° ENE daylight
01 Sep - 13:58:16 10° WNW 14:05:07 33° NNW 14:11:40 10° NE daylight
01 Sep - 15:54:46 10° NW 16:00:38 25° N 16:06:15 10° NE daylight
01 Sep - 17:49:42 10° NW 17:56:03 34° NNE 18:02:04 10° ENE daylight
01 Sep - 19:43:45 10° WNW 19:50:37 83° NNE 19:57:09 10° ESE visible
01 Sep - 21:38:59 10° W 21:44:29 28° SSW 21:49:54 10° SSE visible
02 Sep - 09:15:17 10° SSW 09:21:48 29° SSE 09:28:24 10° E daylight
02 Sep - 11:08:14 10° WSW 11:16:08 88° SSE 11:23:56 10° ENE daylight
02 Sep - 13:03:41 10° W 13:10:55 40° NNW 13:17:55 10° NE daylight
02 Sep - 15:00:16 10° WNW 15:06:22 26° N 15:12:13 10° NE daylight
02 Sep - 16:55:42 10° NW 17:01:57 30° N 17:07:52 10° ENE daylight
02 Sep - 18:49:51 10° WNW 18:56:48 64° NNE 19:03:21 10° ESE visible
02 Sep - 20:44:35 10° W 20:50:48 40° SSW 20:56:49 10° SE visible
03 Sep - 08:22:22 10° SSW 08:27:51 21° SSE 08:33:25 10° ESE daylight
03 Sep - 10:14:22 10° SW 10:22:08 68° SSE 10:29:54 10° ENE daylight
03 Sep - 12:09:12 10° W 12:16:46 49° NNW 12:24:09 10° NE daylight
03 Sep - 14:05:41 10° WNW 14:12:05 28° N 14:18:16 10° NE daylight
03 Sep - 16:01:35 10° NW 16:07:45 27° N 16:13:38 10° ENE daylight
03 Sep - 17:55:57 10° NW 18:02:53 50° NNE 18:09:24 10° E daylight
03 Sep - 19:50:22 10° WNW 19:57:05 57° SSW 20:03:30 10° SE visible
03 Sep - 21:47:37 10° WSW 21:50:57 14° SSW 21:54:16 10° S visible
